Regional Weather Roundup
Issued by NWS Memphis, TN

Home | Current Version | Previous Version | Text Only | Print | Product List | Glossary On
Versions: 1 2 3 4 5 6 7 8 9 10 11 12 13 14 15 16 17 18 19 20 21 22 23 24 25 26 27 28 29 30 31 32 33 34 35 36 37 38 39 40 41 42 43 44 45 46 47 48 49 50
000
ASUS44 KMEG 260600
RWRMEG
MEMPHIS CWA HOURLY WEATHER ROUNDUP
NATIONAL WEATHER SERVICE MEMPHIS TN
100 AM CDT SAT JUL 26 2014

...WEST TENNESSEE...

CITY           SKY/WX    TMP DP  RH WIND       PRES   REMARKS
MEMPHIS INTL   PTCLDY    72  65  78 S6        30.00S
6HR MIN TEMP:  72; 6HR MAX TEMP:  85;

NWS MEMPHIS      N/A     70 N/A N/A MISG        N/A
JACKSON        PTCLDY    68  65  90 S3        30.00F
6HR MIN TEMP:  67; 6HR MAX TEMP:  80;

DYERSBURG      CLEAR     70  57  64 CALM      30.00S
6HR MIN TEMP:  68; 6HR MAX TEMP:  79;



...EASTERN ARKANSAS...

CITY           SKY/WX    TMP DP  RH WIND       PRES   REMARKS
JONESBORO      CLEAR     72  66  81 SW5       29.97S
6HR MIN TEMP:  69; 6HR MAX TEMP:  81;

WEST MEMPHIS   PTCLDY    71  67  87 S3        29.98S
6HR MIN TEMP:  71; 6HR MAX TEMP:  83;

BATESVILLE     CLEAR     75  70  83 S7        29.97S
6HR MIN TEMP:  75; 6HR MAX TEMP:  84;

WALNUT RIDGE   CLEAR     72  57  60 S5        29.96S
6HR MIN TEMP:  72; 6HR MAX TEMP:  82;

BLYTHEVILLE    CLEAR     71  66  84 S7        29.98S
6HR MIN TEMP:  71; 6HR MAX TEMP:  81;

STUTTGART      CLEAR     75  70  83 S6        30.00S
6HR MIN TEMP:  75; 6HR MAX TEMP:  86;

PINE BLUFF     CLEAR     73  70  90 CALM      29.99R
6HR MIN TEMP:  72; 6HR MAX TEMP:  86;

MONTICELLO     CLEAR     76  71  85 S5        29.99F
6HR MIN TEMP:  76; 6HR MAX TEMP:  87;



...NORTH MISSISSIPPI...

CITY           SKY/WX    TMP DP  RH WIND       PRES   REMARKS
TUPELO         CLEAR     70  66  87 CALM      30.01S
6HR MIN TEMP:  70; 6HR MAX TEMP:  83;

OLIVE BRANCH   CLEAR     70  70 100 CALM      30.01S
CLARKSDALE     PTCLDY    72  70  94 CALM      30.00F
GREENWOOD      CLEAR     68  67  96 CALM      30.00S
6HR MIN TEMP:  68; 6HR MAX TEMP:  84;

COLUMBUS       CLEAR     65  65 100 CALM      30.02S
6HR MIN TEMP:  65; 6HR MAX TEMP:  83;

STARKVILLE     FAIR      63  63 100 CALM      30.02S
GOLDEN TRIANGL CLEAR     68  63  83 CALM      30.03R
6HR MIN TEMP:  64; 6HR MAX TEMP:  82;



...SOUTHEAST MISSOURI...

CITY           SKY/WX    TMP DP  RH WIND       PRES   REMARKS
WEST PLAINS    CLEAR     72  68  87 S6        29.98S
6HR MIN TEMP:  72; 6HR MAX TEMP:  82;

POPLAR BLUFF   CLEAR     68  63  84 SW3       29.94F
6HR MIN TEMP:  66; 6HR MAX TEMP:  78;

CAPE GIRARDEAU CLEAR     70  64  81 S5        29.96R
6HR MIN TEMP:  70; 6HR MAX TEMP:  76;



...NORTHWEST ALABAMA...

CITY           SKY/WX    TMP DP  RH WIND       PRES   REMARKS
MUSCLE SHOALS  PTCLDY    68  64  87 CALM      30.03S FOG
6HR MIN TEMP:  67; 6HR MAX TEMP:  83;



...MIDDLE TENNESSEE...

CITY           SKY/WX    TMP DP  RH WIND       PRES   REMARKS
NASHVILLE      PTCLDY    70  64  81 S3        30.03S
6HR MIN TEMP:  70; 6HR MAX TEMP:  81;

CLARKSVILLE    CLEAR     65  61  87 CALM      30.01S
6HR MIN TEMP:  65; 6HR MAX TEMP:  80;



...WESTERN KENTUCKY...

CITY           SKY/WX    TMP DP  RH WIND       PRES   REMARKS
PADUCAH        CLEAR     68  63  84 CALM      29.99R
6HR MIN TEMP:  67; 6HR MAX TEMP:  77;

FORT CAMPBELL  CLEAR     69  64  85 E2        30.01S
6HR MIN TEMP:  68; 6HR MAX TEMP:  79;



...CENTRAL ARKANSAS...

CITY           SKY/WX    TMP DP  RH WIND       PRES   REMARKS
LITTLE ROCK    CLEAR     75  71  87 CALM      29.98S
6HR MIN TEMP:  75; 6HR MAX TEMP:  86;



SKY/WX REPORTED AS FAIR MEANS FEW OR NO CLOUDS BELOW
12 THOUSAND FEET.



USA.gov is the U.S. government's official web portal to all federal, state and local government web resources and services.